Regional Weather Roundup
Issued by NWS Kansas City/Pleasant Hill, MO

Home | Current Version | Previous Version | Graphics & Text | Print | Product List | Glossary Off
Versions: 1 2 3 4 5 6 7 8 9 10 11 12 13 14 15 16 17 18 19 20 21 22 23 24 25 26 27 28

000
ASUS43 KEAX 262010
RWREAX

WEATHER ROUNDUP FOR EASTERN KANSAS AND NORTHWEST MISSOURI
NATIONAL WEATHER SERVICE KANSAS CITY/PLEASANT HILL MO
300 PM CDT SUN MAR 26 2017

KSZ040-057-103>105-MOZ028-029-037-043-262100-
...KANSAS CITY METROPOLITAN AREA...

CITY           SKY/WX    TMP DP  RH WIND       PRES   REMARKS
K.C. INTL      CLOUDY    51  44  77 W7        29.91F
K.C. DOWNTOWN  CLOUDY    53  44  71 W7        29.91F
LEES SUMMIT    CLOUDY    53  45  74 W7        29.91F
OLATHE - IXD   CLOUDY    51  44  77 W6        29.91F
OLATHE - OJC   CLOUDY    51  45  79 W6        29.90F
LAWRENCE       CLOUDY    51  44  77 NW3       29.91F

$$

MOZ001>008-011>017-020>025-030>033-038>040-044>046-053-054-262100-
...NORTHERN AND CENTRAL MISSOURI...

CITY           SKY/WX    TMP DP  RH WIND       PRES   REMARKS
ST. JOSEPH     CLOUDY    49  43  80 NW8       29.92F
MOSBY          CLOUDY    52  43  71 W7        29.91F
WARRENSBURG    CLOUDY    54  45  71 SW7       29.91F
WHITEMAN AFB   CLOUDY    55  51  86 W9        29.90F
CLINTON        CLOUDY    55  48  76 SW6       29.92F
SEDALIA        CLOUDY    55  48  77 W7        29.92F
WARSAW         NOT AVBL
CHILLICOTHE      N/A     51  44  77 W7        29.92F
KIRKSVILLE     CLOUDY    47  44  90 W8        29.90S

$$

MOZ041-047>049-056>058-063>065-088>090-097-262100-
...EASTERN AND SOUTHERN MISSOURI...

CITY           SKY/WX    TMP DP  RH WIND       PRES   REMARKS
ST. LOUIS INTL CLOUDY    61  49  64 W14       29.90S
SPIRIT OF STL  CLOUDY    60  51  72 W8        29.90R
COLUMBIA       CLOUDY    58  51  78 W15       29.90F
JEFFERSON CITY CLOUDY    60  49  66 W8        29.91F
ROLLA          CLOUDY    59  50  72 VRB7      29.90S
OSAGE BEACH    CLOUDY   N/A N/A N/A W7        29.93S
SPRINGFIELD    CLOUDY    64  50  60 SW10      29.90F
BRANSON        PTSUNNY   66  46  48 W8        29.92F
JOPLIN         CLOUDY    65  48  54 SW7       29.88F
WEST PLAINS    MOSUNNY   65  49  56 S13G20    29.93F

$$

IAZ060-094-KSZ022-034>040-054-083-096-NEZ052-066-093-262100-
...KANSAS...SOUTHEAST NEBRASKA AND IOWA...

CITY           SKY/WX    TMP DP  RH WIND       PRES   REMARKS
TOPEKA         CLOUDY    52  45  77 W6        29.91F
MANHATTAN      CLOUDY    51  44  77 E3        29.90F
EMPORIA        CLOUDY    52  47  83 E9        29.87F
CHANUTE        MOSUNNY   60  48  64 VRB6      29.87F
WICHITA        CLOUDY    59  48  67 E18G24    29.77F
OMAHA          CLOUDY    48  40  73 NW5       29.91F
LINCOLN        CLOUDY    46  42  86 N5        29.93F
FALLS CITY     CLOUDY    47  41  80 CALM      29.92S
LAMONI         CLOUDY    47  43  86 W10       29.90R
DES MOINES     CLOUDY    47  44  90 W10       29.89S

$$





USA.gov is the U.S. government's official web portal to all federal, state and local government web resources and services.